Location: Unspecified
(0.0000°N, 0.0000°E)
Time: 15:31:10
(UTC+00:00)

Courier 1B Rocket - Visible Passes

Search period start: 31 March 2015 00:00
Search period end: 10 April 2015 00:00
Orbit: 921 x 1202 km, 28.2° (Epoch: 29 March)

Date Brightness Start Highest point End Pass type
(mag) Time Alt. Az. Time Alt. Az. Time Alt. Az.
31 Mar 6.9 04:17:03 17° SSW 04:21:28 27° SSE 04:27:52 10° E visible
31 Mar 6.2 19:32:00 10° W 19:37:47 34° SSW 19:41:25 20° SSE visible
01 Apr 7.2 03:20:13 20° SSE 03:20:13 20° SSE 03:25:21 10° ESE visible
01 Apr 5.9 05:06:39 10° SW 05:14:21 58° SSE 05:21:48 10° ENE visible
01 Apr 5.7 18:30:36 10° WNW 18:36:41 51° SSW 18:43:06 10° SE visible
01 Apr 7.1 20:27:01 10° WSW 20:30:50 15° SSW 20:30:56 15° SSW visible
02 Apr 6.3 04:09:49 29° SSW 04:12:59 40° SSE 04:20:10 10° E visible
02 Apr 6.8 19:24:37 10° WSW 19:29:29 22° SSW 19:34:00 11° SSE visible
03 Apr 6.9 03:13:00 27° SE 03:13:00 27° SE 03:18:06 10° E visible
03 Apr 5.5 04:59:24 17° WSW 05:05:42 85° SSE 05:13:24 10° ENE visible
03 Apr 6.4 18:22:45 10° W 18:28:18 32° SSW 18:33:59 10° SE visible
04 Apr 5.7 04:02:35 49° SSW 04:04:23 60° SSE 04:12:03 10° ENE visible
04 Apr 7.2 19:17:59 10° SW 19:21:18 14° SSW 19:24:29 10° S visible
05 Apr 6.8 03:05:45 32° ESE 03:05:45 32° ESE 03:10:20 10° E visible
05 Apr 5.5 04:52:09 25° WSW 04:57:01 66° NNW 05:04:41 10° NE visible
06 Apr 5.2 03:55:16 81° SW 03:55:42 87° SSE 04:03:34 10° ENE visible
07 Apr 6.9 02:58:20 31° E 02:58:20 31° E 03:02:09 10° ENE visible
07 Apr 5.9 04:44:44 28° W 04:48:23 44° NNW 04:55:42 10° NE visible
08 Apr 5.5 03:47:45 62° N 03:47:45 62° N 03:54:47 10° NE visible
08 Apr 6.9 05:35:37 10° WNW 05:41:22 21° NNW 05:46:54 10° NNE visible
09 Apr 7.1 02:50:44 25° ENE 02:50:44 25° ENE 02:53:37 10° ENE visible
09 Apr 6.4 04:37:07 25° WNW 04:39:51 30° NNW 04:46:28 10° NNE visible
